• Join FlightAware (Why Join?)
  • Login
  • US Flag 
03:25PM EST


 

Airport Tracker/Info


-or-


 

Live Flight TrackerFlight Track Log ✈ EJA922 ✈ 28-Oct-2013 ✈ KBED - KHPN

Flight Track Log - Related Links

Times and Time Zones

All times are in EDT time to prevent confusion due to time zone crossing. See the EJA922 flight status page for this flight to view local times or setup timezone preferences in your user account.

Time Position Orientation Groundspeed Altitude Reporting Facility
EDT Latitude Longitude Course Direction KTS MPH feet Rate Location/Type
05:54PM 42.4327 -71.4189 249° West  Level FlightAware Approximate
05:54PM 42.3961 -71.4503 249° West 259 298 7,100  Level Boston Center
05:55PM 42.3822 -71.5464 259° West 260 299 11,300 3,240 Climbing Boston Center
05:56PM 42.3392 -71.6589 243° Southwest 320 368 13,900 1,260 Climbing Boston Center
05:57PM 42.2917 -71.7817 242° Southwest 367 422 14,000  Climbing Boston Center
05:58PM 42.2431 -71.9069 242° Southwest 378 435 14,000  Level Boston Center
05:59PM 42.1942 -72.0328 242° Southwest 373 429 14,000  Level Boston Center
06:01PM 42.1422 -72.1703 243° Southwest 385 443 14,000  Level Boston Center
06:02PM 42.0936 -72.2958 242° Southwest 380 437 14,000  Level Boston Center
06:03PM 42.0450 -72.4214 242° Southwest 380 437 14,100  Climbing Boston Center
06:04PM 41.9972 -72.5456 243° Southwest 374 430 14,100  Level Boston Center
06:05PM 41.9503 -72.6711 243° Southwest 370 426 14,100  Level Boston Center
06:06PM 41.9017 -72.7839 240° Southwest 326 375 14,100  Level Boston Center
06:07PM 41.8622 -72.8789 241° Southwest 297 342 14,100  Level Boston Center
06:08PM 41.8253 -72.9683 241° Southwest 278 320 14,100  Level Boston Center
06:09PM 41.7867 -73.0617 241° Southwest 293 337 14,100 -60 Level Boston Center
06:10PM 41.7381 -73.1775 241° Southwest 338 389 14,000 -60 Descending Boston Center
06:11PM 41.6883 -73.2944 240° Southwest 364 419 14,000 -120 Level Boston Center
06:12PM 41.6336 -73.4217 240° Southwest 379 436 13,800 -1,200 Descending Boston Center
06:13PM 41.5842 -73.5353 240° Southwest 347 399 11,600 -1,920 Descending Boston Center
06:14PM 41.5431 -73.6303 240° Southwest 298 343 9,900 -1,560 Descending Boston Center
06:15PM 41.5053 -73.7200 241° Southwest 260 299 8,500 -1,440 Descending Boston Center
06:16PM 41.4700 -73.8025 240° Southwest 256 295 7,000 -1,380 Descending Boston Center
06:17PM 41.4142 -73.8519 214° Southwest 252 290 5,700 -1,440 Descending Boston Center
06:18PM 41.3503 -73.8058 152° Southeast 262 302 4,100 -1,260 Descending Boston Center
06:19PM 41.2833 -73.7500 148° Southeast 267 307 3,100 -900 Descending New York TRACON
06:20PM 41.2167 -73.6833 143° Southeast 255 293 2,300 -540 Descending New York TRACON
06:21PM 41.1667 -73.6333 143° Southeast 269 310 2,100 -180 Descending New York TRACON
06:22PM 41.1000 -73.5833 151° Southeast 267 307 2,000 -60 Descending New York TRACON
06:23PM 41.0333 -73.5667 169° South 266 306 2,000  Level New York TRACON
06:24PM 40.9833 -73.6167 217° Southwest 254 292 2,000 -300 Level New York TRACON
06:25PM 41.0167 -73.6667 311° West 186 214 1,500 -600 Descending New York TRACON
06:26PM 41.0500 -73.6833 339° North 116 133 800 -720 Descending New York TRACON